Regional Weather Roundup
Issued by NWS

Home | Current Version | Previous Version | Text Only | Print | Product List | Glossary On
Versions: 1 2 3 4 5 6 7 8 9 10 11 12 13 14 15 16 17 18 19 20 21 22 23 24 25 26 27 28 29 30 31 32 33 34 35 36 37 38 39 40 41 42 43 44 45 46 47 48 49 50
000
ASUS43 KMKX 010000
RWRWI

WISCONSIN REGIONAL WEATHER ROUNDUP
NATIONAL WEATHER SERVICE MILWAUKEE/SULLIVAN WI
700 PM CDT SAT APR 30 2016

NOTE: "FAIR" INDICATES FEW OR NO CLOUDS BELOW 12,000 FEET WITH NO
SIGNIFICANT WEATHER AND/OR OBSTRUCTIONS TO VISIBILITY.

WIZ001-002-006>008-014>016-023>028-010100-
NORTHWEST WISCONSIN

CITY           SKY/WX    TMP DP  RH WIND       PRES   REMARKS
SUPERIOR ARPT  CLOUDY    42  33  71 NE16G25   30.23S
ASHLAND        CLOUDY    44  32  62 NE15      30.23S
6HR MIN TEMP:  44; 6HR MAX TEMP:  50;

HAYWARD        PTSUNNY   46  28  49 NE17      30.16S
6HR MIN TEMP:  46; 6HR MAX TEMP:  56;

SIREN          CLOUDY    50  25  37 NE20G28   30.13S
CUMBERLAND     CLOUDY    48  28  46 N18G25    30.09F
RICE LAKE      CLOUDY    51  31  46 N23       30.09F
CHETEK         CLOUDY    53  34  48 NE12G23   30.07S
LADYSMITH      CLOUDY    56  34  43 NE15G21   30.09R
EAU CLAIRE     CLOUDY    55  34  45 SE7       30.04S
6HR MIN TEMP:  55; 6HR MAX TEMP:  59;

MENOMONIE      CLOUDY    55  37  50 E6        30.04S
NEW RICHMOND   CLOUDY    53  33  47 NE15G24   30.06R
OSCEOLA        CLOUDY    53  34  47 NE16G23   30.10R
$$

WIZ003>005-009-010-017-018-010100-
NORTH CENTRAL WISCONSIN

CITY           SKY/WX    TMP DP  RH WIND       PRES   REMARKS
MANITOWISH WTR MOSUNNY   49  33  55 N10G20    30.13R
ARBOR VITAE    CLOUDY    52  32  46 NE9       30.11R
WOODRUFF       CLOUDY    52  32  46 NE9       30.11R
RHINELANDER    CLOUDY    52  30  43 NE10G20   30.11R
6HR MIN TEMP:  52; 6HR MAX TEMP:  56;

EAGLE RIVER    CLOUDY    51  28  41 NE10G17   30.11R
LAND O LAKES   PTCLDY    50  32  49 N13G18    30.14R
PHILLIPS       CLOUDY    53  34  49 N12G21    30.09R
TOMAHAWK       CLOUDY    53  32  45 NE7       30.09R
MEDFORD        CLOUDY    54  33  45 E7        30.07R
MERRILL        CLOUDY    55  34  45 E10       30.09R
$$

WIZ029-030-035-036-043>047-010100-
CENTRAL WISCONSIN

CITY           SKY/WX    TMP DP  RH WIND       PRES   REMARKS
WAUSAU         CLOUDY    54  32  43 E7        30.07R
6HR MIN TEMP:  54; 6HR MAX TEMP:  58;

MOSINEE        MOCLDY    52  30  43 E10       30.09R
MARSHFIELD     LGT RAIN  51  31  46 E10       30.06F
6HR MIN TEMP:  51; 6HR MAX TEMP:  55; 6HR PCP: TRACE;

STEVENS POINT  CLOUDY    49  30  47 E8        30.09R
WAUPACA        CLOUDY    52  29  40 NE6       30.08S
WAUTOMA        NOT AVBL
WISC RAPIDS    LGT RAIN  50  29  44 E18G24    30.09R
6HR MIN TEMP:  50; 6HR MAX TEMP:  53; 6HR PCP: TRACE;

CAMP DOUGLAS   NOT AVBL
$$

WIZ011>013-019>022-031-037>040-048>050-010100-
NORTHEAST WISCONSIN

CITY           SKY/WX    TMP DP  RH WIND       PRES   REMARKS
ANTIGO         CLOUDY    51  34  51 E12       30.10R
SHAWANO        CLOUDY    54  32  44 NE8       30.09R
OCONTO         CLOUDY    51  30  45 NE10G17   30.08R
STURGEON BAY   MOCLDY    52  27  37 NE12      30.10R
6HR MIN TEMP:  48; 6HR MAX TEMP:  52;

GREEN BAY      CLOUDY    49  37  63 NE8       30.08R
6HR MIN TEMP:  49; 6HR MAX TEMP:  52;

MANITOWOC      NOT AVBL
APPLETON       CLOUDY    50  32  50 NE9       30.06R
CLINTONVILLE   CLOUDY    50  28  43 E6        30.09R
OSHKOSH        LGT RAIN  48  39  71 NE12      30.05R
6HR MIN TEMP:  48; 6HR MAX TEMP:  53; 6HR PCP:  0.03;

$$

WIZ032>034-041-042-053>061-010100-
SOUTHWEST WISCONSIN

CITY           SKY/WX    TMP DP  RH WIND       PRES   REMARKS
LA CROSSE      LGT RAIN  47  37  68 NE16G24   30.04S
6HR MIN TEMP:  47; 6HR MAX TEMP:  53; 6HR PCP:  0.25;

SPARTA         LGT RAIN  46  38  74 E9G22     30.06S
VIROQUA        CLOUDY    43  41  93 NE14      30.02R
BOSCOBEL       CLOUDY    46  50 100 NE8       30.00R
6HR MIN TEMP:  46; 6HR MAX TEMP:  49; 6HR PCP:  0.38;

PRAIRIE DU CHI DRIZZLE   45  41  86 E9G16     29.99R
PLATTEVILLE    CLOUDY    44  42  93 E21G26    29.95R
$$

WIZ056-057-062-063-064-067-068-010100-
SOUTH CENTRAL WISCONSIN

CITY           SKY/WX    TMP DP  RH WIND       PRES   REMARKS
REEDSBURG      LGT RAIN  43  42  98 NE5       30.02F
BARABOO/DELLS  LGT RAIN  43  41  91 E10       30.02F
LONE ROCK      NOT AVBL
MINERAL POINT  CLOUDY    43  43 100 NE18G28   29.95R
MADISON        LGT RAIN  44  40  85 NE10G21   30.03R FOG
6HR MIN TEMP:  44; 6HR MAX TEMP:  48; 6HR PCP:  0.33;

MIDDLETON      CLOUDY    45  42  91 NE10      30.02R
WATERTOWN      LGT RAIN  43  43 100 NE12G18   30.01F
MONROE         RAIN      43  41  93 NE17G28   29.98R
JANESVILLE     LGT RAIN  45  43  93 NE16G24   29.95R FOG
$$

WIZ051-052-058>065-066-070>072-010100-
SOUTHEAST WISCONSIN

CITY           SKY/WX    TMP DP  RH WIND       PRES   REMARKS
MILWAUKEE      RAIN      42  39  89 N14       30.01S FOG
6HR MIN TEMP:  42; 6HR MAX TEMP:  46; 6HR PCP:  0.18;

WAUKESHA       RAIN      41  39  93 NE14      30.02S FOG
MILWAUKEE/TIMM RAIN      43  37  81 NE9       30.03
RACINE         RAIN      43  39  86 NE10      30.02S FOG
6HR MIN TEMP:  42; 6HR MAX TEMP:  45; 6HR PCP:  0.22;

BURLINGTON     RAIN      41  40  96 NE10G16   29.98F
KENOSHA        RAIN      43  40  89 NE12      29.99R FOG
6HR MIN TEMP:  43; 6HR MAX TEMP:  45; 6HR PCP:  0.35;

FOND DU LAC    LGT RAIN  47  39  74 NE14G20   30.05R
6HR MIN TEMP:  47; 6HR MAX TEMP:  53; 6HR PCP:  0.02;

SHEBOYGAN      LGT RAIN  45  35  68 NE13      30.05R
6HR MIN TEMP:  45; 6HR MAX TEMP:  49; 6HR PCP:  0.02;

WEST BEND      LGT RAIN  43  37  81 NE9       30.04R
JUNEAU         RAIN      43  40  90 NE6       30.05R
$$

LSZ147-162-010100-
LAKE SUPERIOR

STATION/POSITION TIME  TEMP    WIND        PRES    WAVE
                       AIR SEA DIR/SP/G            HT/PER
                 (UTC) (F)     (DEG/KT/KT) (MB)    (FT/S)
W MID LAKE BUOY  2250   40 37   60/ 12/ 14 1025.1F   2/ 5
DEVILS ISLAND    2300   40      70/ 18/ 21 1024.7F
PORT WING        2340   40      20/ 17/ 18 1023.7S
SAXON HARBOR     2300   40      50/ 20/ 24 1022.4R
$$

LMZ867-665-643>646-010100-
LAKE MICHIGAN

STATION/POSITION TIME  TEMP    WIND        PRES    WAVE
                       AIR SEA DIR/SP/G            HT/PER
                 (UTC) (F)     (DEG/KT/KT) (MB)    (FT/S)
CHAMBERS ISLAND  2300   45      20/ 14/ 16 1019.0S
N MID LAKE BUOY  2250   43 39   30/ 12/ 14 1018.7F   1
NORTHPORT PIER   2300   50      10/  7/ 10 1018.6F
ALGOMA LAKESHORE 2315           60/ 19/ 26   N/A
KEWAUNEE LAKESHO 2300   44                   N/A
SHEBOYGAN LAKESH 2300   42      20/ 14/ 15 1018.0R
PORT WASHINGTON  2340   43      30/  9/ 13 1017.9R
S MID LAKE BUOY  2250   43 40   70/ 10/ 12 1015.4F   1/ 3
KENOSHA   LAKESH 2300   42      30/ 16/ 18 1015.2S
$$

TC  - TEMPERATURE IN CELSIUS
VSB - VISIBILITY IN STATUTE MILES
WCI - WIND CHILL INDEX
HX  - HEAT INDEX





USA.gov is the U.S. government's official web portal to all federal, state and local government web resources and services.